OSCAR 7 (AO-7) 1 07530U 74089B 26167.98236219 -.00000042 00000+0 29785-4 0 9996 2 07530 101.9900 181.2269 0012576 130.5028 286.3286 12.53698125360495 PHASE 3B (AO-10) 1 14129U 83058B 26167.39836832 .00000184 00000+0 00000+0 0 9996 2 14129 25.9115 219.6954 6011122 115.4511 316.8847 2.05868576295470 UOSAT 2 (UO-11) 1 14781U 84021B 26168.15425539 .00000926 00000+0 99821-4 0 9992 2 14781 97.8058 133.7292 0007651 172.3992 187.7343 14.90783243257120 LUSAT (LO-19) 1 20442U 90005G 26168.04242580 .00000086 00000+0 47437-4 0 9996 2 20442 98.8850 189.8440 0011114 201.5317 158.5401 14.34123170902374 EYESAT A (AO-27) 1 22825U 93061C 26168.06979947 .00000083 00000+0 48401-4 0 9993 2 22825 98.6881 235.4834 0009540 100.0615 260.1644 14.30942245706988 ITAMSAT (IO-26) 1 22826U 93061D 26168.04924696 .00000079 00000+0 46466-4 0 9997 2 22826 98.6828 235.3803 0010075 85.3191 274.9142 14.31369158707292 RADIO ROSTO (RS15) 1 23439U 94085A 26168.11598097 -.00000052 00000+0 -26511-3 0 9996 2 23439 64.8179 303.3313 0155948 3.8895 356.3203 11.27583468295899 JAS-2 (FO-29) 1 24278U 96046B 26168.08931512 .00000003 00000+0 35306-4 0 9993 2 24278 98.5239 16.9749 0350903 96.6851 267.4347 13.53274399473151 TECHSAT 1B (GO-32) 1 25397U 98043D 26167.99414689 .00000035 00000+0 35298-4 0 9990 2 25397 99.0067 160.7479 0001050 163.2340 196.8873 14.24428360451307 ISS (ZARYA) 1 25544U 98067A 26168.18949189 .00009113 00000+0 17172-3 0 9996 2 25544 51.6332 300.0813 0004737 195.1146 164.9702 15.49273435571752 PCSAT (NO-44) 1 26931U 01043C 26167.94977868 .00000077 00000+0 59805-4 0 9993 2 26931 67.0506 244.8859 0006077 264.6628 95.3780 14.31956043290415 SAUDISAT 1C (SO-50) 1 27607U 02058C 26167.95299985 .00000833 00000+0 11563-3 0 9997 2 27607 64.5510 129.7097 0075272 262.5111 96.7439 14.83046700264420 CUTE-1 (CO-55) 1 27844U 03031E 26167.96692816 .00000228 00000+0 11765-3 0 9995 2 27844 98.6736 176.5285 0009524 178.6032 181.5176 14.24335593191646 CUBESAT XI-IV (CO-57) 1 27848U 03031J 26167.95527529 .00000197 00000+0 10575-3 0 9999 2 27848 98.6766 176.2299 0009009 197.6805 162.4061 14.23620738191347 MOZHAETS 4 (RS22) 1 27939U 03042A 26168.22242762 .00000353 00000+0 62611-4 0 9999 2 27939 98.3462 352.5818 0009940 269.7492 206.0998 14.73465726215554 CUBESAT XI-V 1 28895U 05043F 26167.38340975 .00001200 00000+0 19649-3 0 9999 2 28895 98.2985 322.9884 0013585 203.3717 156.6874 14.72629782101632 CUTE-1.7+APD II (CO-65) 1 32785U 08021C 26168.18248431 .00004100 00000+0 26011-3 0 9997 2 32785 97.8272 149.6008 0009757 39.0823 321.1109 15.09451626985191 SEEDS II (CO-66) 1 32791U 08021J 26167.93971588 .00015903 00000+0 50504-3 0 9999 2 32791 97.7513 165.8255 0001090 4.6274 355.4977 15.32745063987258 YUBILEINY (RS30) 1 32953U 08025A 26168.17894034 .00000073 00000+0 45707-3 0 9991 2 32953 82.5036 355.4453 0018867 313.9508 46.0015 12.43179667819691 KKS-1 (KISEKI) 1 33499U 09002H 26168.12166617 .00001069 00000+0 13796-3 0 9996 2 33499 98.1190 90.5628 0006531 296.1231 63.9310 14.83123869936181 SWISSCUBE 1 35932U 09051B 26167.55290444 .00000809 00000+0 16935-3 0 9995 2 35932 98.4037 75.4301 0005921 205.2603 154.8309 14.62480577889065 BEESAT-1 1 35933U 09051C 26167.97272745 .00000674 00000+0 14519-3 0 9992 2 35933 98.3964 75.4933 0004211 217.7177 142.3728 14.61720245889155 ITUPSAT1 1 35935U 09051E 26167.68937774 .00000621 00000+0 13815-3 0 9992 2 35935 98.4049 74.3979 0006243 235.8160 124.2448 14.60440072888669 XIWANG-1 (HOPE-1) 1 36122U 09072B 26168.16788370 -.00000091 00000+0 -12087-3 0 9997 2 36122 100.4028 122.0008 0006860 231.6804 128.3693 13.16438241793002 O/OREOS (USA 219) 1 37224U 10062C 26168.06221402 .00001857 00000+0 18098-3 0 9996 2 37224 71.9713 80.6226 0012543 63.3482 296.8972 14.93744409116627 JUGNU 1 37839U 11058B 26168.10338875 .00000397 00000+0 67695-4 0 9998 2 37839 19.9617 308.9384 0018637 75.2680 81.6214 14.13776752759010 SRMSAT 1 37841U 11058D 26168.08915448 .00000356 00000+0 49079-4 0 9996 2 37841 19.9723 60.0600 0011791 202.5356 269.2197 14.11575544757800 STRAND-1 1 39090U 13009E 26168.05600821 .00000208 00000+0 84356-4 0 9998 2 39090 98.3921 348.2936 0007721 225.7005 134.3549 14.37163232697045 ZACUBE-1 (TSHEPISOSAT) 1 39417U 13066B 26168.14066506 .00002606 00000+0 20460-3 0 9999 2 39417 97.8081 130.4773 0040796 247.8306 111.8586 15.01188974680727 GOMX-1 1 39430U 13066Q 26168.18596690 .00001349 00000+0 20750-3 0 9995 2 39430 97.6476 8.6487 0130200 77.5310 284.0429 14.69459629669917 CUBEBUG-2 (LO-74) 1 39440U 13066AA 26168.13017218 .00004009 00000+0 37158-3 0 9991 2 39440 97.8909 117.1080 0058392 29.2654 331.1816 14.93761629676984 FUNCUBE-1 (AO-73) 1 39444U 13066AE 26168.18912497 .00005092 00000+0 31739-3 0 9995 2 39444 97.8278 139.6350 0035625 200.8466 159.1312 15.09490131679660 UWE-3 1 39446U 13066AG 26168.14881219 .00003686 00000+0 31825-3 0 9993 2 39446 97.8697 124.2222 0047554 321.2841 38.4975 14.97024580677573 UNISAT-6 1 40012U 14033C 26168.13329300 .00002048 00000+0 22346-3 0 9995 2 40012 97.7880 320.8458 0046258 69.4804 291.1368 14.88246346646152 DUCHIFAT-1 1 40021U 14033M 26168.08560661 .00086906 00000+0 89449-3 0 9998 2 40021 98.0464 227.2320 0003017 117.8101 242.3462 15.64575667655739 QB50P1 1 40025U 14033R 26168.01826155 .00006622 00000+0 32676-3 0 9995 2 40025 98.0959 179.1525 0007771 215.7704 144.3009 15.18259399653008 LILACSAT-2 1 40908U 15049K 26168.14326480 .00015706 00000+0 26766-3 0 9999 2 40908 97.4640 204.9833 0005504 245.1794 114.8886 15.51445501595745 FOX-1A (AO-85) 1 40967U 15058D 26167.68181392 .00001893 00000+0 17791-3 0 9993 2 40967 64.7762 280.5545 0130434 56.7813 304.5723 14.90967641113493 CAS-2T & KS-1Q 1 41847U 16066G 26168.10210262 .00001464 00000+0 21211-3 0 9994 2 41847 98.3822 243.8394 0342791 129.7362 233.4574 14.44694196504787 RADFXSAT (FOX-1B) 1 43017U 17073E 26167.87725140 .00006435 00000+0 28237-3 0 9991 2 43017 97.4700 35.0982 0149597 330.3447 28.9362 15.12714806465347 DIWATA-2B 1 43678U 18084H 26168.16987603 .00001848 00000+0 15186-3 0 9996 2 43678 98.1176 4.3769 0012454 170.1623 189.9846 15.00451413416210 ES'HAIL 2 1 43700U 18090A 26167.76128993 .00000141 00000+0 00000+0 0 9993 2 43700 0.0175 13.0563 0001609 111.1044 80.7103 1.00270422 27674 FOX-1CLIFF (AO-95) 1 43770U 18099N 26168.07768584 .00008495 00000+0 32585-3 0 9997 2 43770 97.4377 228.3240 0008015 358.3835 1.7377 15.26709473413209 ITASAT 1 43786U 18099AE 26168.08754567 .00005482 00000+0 26431-3 0 9997 2 43786 97.4026 219.6012 0012101 0.6685 359.4564 15.19055872412892 JY1SAT (JO-97) 1 43803U 18099AX 26167.70427300 .00013619 00000+0 42078-3 0 9993 2 43803 97.4127 230.5368 0004320 264.4420 95.6330 15.33640706413557 UWE-4 1 43880U 18111E 26167.76208191 .00028639 00000+0 58526-3 0 9997 2 43880 97.5856 96.1335 0005598 344.6304 15.4774 15.46104351410714 TIANYAN 01 1 44881U 19093C 26168.17937637 .00000851 00000+0 10197-3 0 9997 2 44881 97.7538 240.4116 0015136 86.9389 273.3558 14.86521169351413 RS-44 & BREEZE-KM R/B 1 44909U 19096E 26168.16155683 .00000014 00000+0 71768-5 0 9997 2 44909 82.5218 339.7219 0218169 144.2252 217.3691 12.79748847302343 SALSAT 1 46495U 20068K 26168.01469823 .00006653 00000+0 23324-3 0 9996 2 46495 97.8847 171.0688 0008038 308.8582 51.1939 15.29798435315333 XW-3 (CAS-9) 1 50466U 21131B 26168.19344968 .00000384 00000+0 13213-3 0 9993 2 50466 98.4989 260.5827 0005398 97.0630 263.1173 14.41357609235115 GREENCUBE (IO-117) 1 53109U 22080E 26164.29338770 -.00000003 00000+0 00000+0 0 9990 2 53109 70.1444 299.5995 0008910 290.4576 69.5127 6.42583230 91811 UMKA 1 (RS40S) 1 57172U 23091G 26168.15971516 .00004936 00000+0 22640-3 0 9993 2 57172 97.5048 226.8569 0014237 117.7218 242.5463 15.20818474164006 CUBESX-HSE 3 (RS42S) 1 57178U 23091N 26168.17384297 .00010474 00000+0 34912-3 0 9994 2 57178 97.5090 233.7608 0012048 94.8556 265.4061 15.31215634164423 MONITOR-3 (RS58S) 1 57180U 23091Q 26168.13280888 .00008331 00000+0 30846-3 0 9995 2 57180 97.5082 231.5784 0013102 100.9442 259.3272 15.27840413164287 MONITOR-4 (RS57S) 1 57182U 23091S 26168.17735926 .00008730 00000+0 32223-3 0 9993 2 57182 97.5075 231.5947 0013105 101.2533 259.0179 15.27927519164297 MONITOR-2 (RS39S) 1 57184U 23091U 26168.18093426 .00004210 00000+0 20465-3 0 9992 2 57184 97.5071 226.4639 0012746 111.1192 249.1405 15.18910415163958 SVYATOBOR 1 (RS60S) 1 57187U 23091X 26168.19044277 .00007539 00000+0 29017-3 0 9995 2 57187 97.5088 232.0074 0010873 94.3748 265.8733 15.26615803164315 VIZARD-METEO (RS38S) 1 57189U 23091Z 26168.14761780 .00013445 00000+0 38499-3 0 9994 2 57189 97.5092 237.6319 0008271 77.7825 282.4344 15.36025142164680 POLYTECH-UNIVERSE 3 (R*) 1 57191U 23091AB 26168.07639632 .00004196 00000+0 20246-3 0 9993 2 57191 97.5046 225.8645 0016848 127.0921 233.1856 15.19112987163931 UTMN 2 (RS27S) 1 57203U 23091AP 26168.12612308 .00011830 00000+0 38419-3 0 9998 2 57203 97.5087 235.3462 0009272 84.0552 276.1746 15.32052698164537 KUZGTU 1 (RS47S) 1 57217U 23091AV 26168.16492491 .00009323 00000+0 32430-3 0 9997 2 57217 97.5062 232.6447 0012298 98.0689 262.1947 15.29861977164370 SONATE-2 1 59112U 24043Q 26168.13831606 .00033018 00000+0 42907-3 0 9991 2 59112 97.5535 318.5306 0007046 195.8556 164.2480 15.58714005127883 MESAT1 1 60209U 24125G 26167.85020551 .00048380 00000+0 52812-3 0 9992 2 60209 97.2286 25.3248 0009546 204.9748 155.1050 15.63168952109514 OOV-CUBE (TUBSAT-30) 1 60240U 24128F 26167.65623862 .00001551 00000+0 12883-3 0 9995 2 60240 61.9941 227.4248 0044650 133.6062 226.8748 15.02772513106033 COLIBRI-S (RS67S) 1 61746U 24199M 26168.19112649 .00017588 00000+0 34101-3 0 9995 2 61746 97.2989 42.0452 0006254 278.9723 81.0819 15.47725105137412 HORS 3 (RS81S) 1 61753U 24199U 26168.15384220 .00028816 00000+0 43074-3 0 9990 2 61753 97.2973 43.9937 0003733 277.8701 82.2130 15.54972377137551 HORS 4 (RS82S) 1 61754U 24199V 26168.17869176 .00037477 00000+0 46954-3 0 9994 2 61754 97.2917 45.2208 0003083 258.3439 101.7472 15.59679999137641 SIT-2086 1 61764U 24199AF 26168.13204561 .00029322 00000+0 46922-3 0 9997 2 61764 97.2928 44.4481 0004579 250.1631 109.9129 15.53082685134429 HYPERVIEW 1G (RS66S) 1 61772U 24199AP 26167.99911042 .00131788 00000+0 84820-3 0 9997 2 61772 97.2863 47.7091 0003694 219.4050 140.6947 15.75792351134645 ALTAIR (RS65S) 1 61779U 24199AW 26168.17710432 .00006531 00000+0 18224-3 0 9997 2 61779 97.3024 37.5281 0011117 311.2575 48.7711 15.37022326137110 ASRTU-1 (AO-123) 1 61781U 24199AY 26168.16499698 .00005901 00000+0 17206-3 0 9996 2 61781 97.2995 36.8360 0012312 314.2353 45.7879 15.35674881133928 SAMSAT-IONOSPHERE (RS7*) 1 61784U 24199BB 26168.18790799 .00037703 00000+0 50997-3 0 9996 2 61784 97.2940 44.0751 0005861 276.3982 83.6606 15.57623528137562 RTU MIREA 1 (RS51S) 1 61785U 24199BC 26168.14821904 .00047297 00000+0 56049-3 0 9999 2 61785 97.2930 44.8662 0005524 268.1439 91.9186 15.61084061134462 TEVEL2-4 1 63213U 25052D 26167.98658140 .00016047 00000+0 48034-3 0 9991 2 63213 97.3904 64.3780 0004860 103.4475 256.7310 15.34605865 70081 TEVEL2-5 1 63214U 25052E 26167.94184661 .00015322 00000+0 46132-3 0 9992 2 63214 97.3902 64.2812 0004796 104.9018 255.2757 15.34430962 70074 TEVEL2-6 1 63215U 25052F 26168.14981521 .00014311 00000+0 43150-3 0 9990 2 63215 97.3903 64.4736 0004692 104.9299 255.2464 15.34400540 70107 TEVEL2-1 1 63217U 25052H 26167.98311731 .00015254 00000+0 46759-3 0 9998 2 63217 97.3878 63.9315 0004776 114.0246 246.1497 15.33862790 70062 TEVEL2-3 1 63218U 25052J 26167.97776757 .00015147 00000+0 46354-3 0 9993 2 63218 97.3882 63.9480 0004723 114.1810 245.9927 15.33918227 70063 TEVEL2-2 1 63219U 25052K 26167.65724747 .00014434 00000+0 44263-3 0 9996 2 63219 97.3883 63.6082 0004715 115.1533 245.0199 15.33861744 70012 TEVEL2-9 1 63237U 25052AD 26167.96058942 .00013167 00000+0 42947-3 0 9996 2 63237 97.3943 63.2870 0007801 131.5476 228.6436 15.31891765 69997 TEVEL2-7 1 63238U 25052AE 26167.67478499 .00012652 00000+0 41668-3 0 9995 2 63238 97.3945 62.9183 0007828 132.5601 227.6303 15.31589641 69947 TEVEL2-8 1 63239U 25052AF 26167.68303146 .00012386 00000+0 40821-3 0 9997 2 63239 97.3946 62.9032 0007849 133.0156 227.1744 15.31573973 69941 INNOSAT 16 (RS92S7) 1 64878U 25155C 26168.13323494 .00004387 00000+0 17611-3 0 9993 2 64878 97.4566 135.2612 0010557 175.4505 184.6830 15.25455745 80660 GEOSCAN 6 (RS92S6) 1 64879U 25155D 26168.18157047 .00008083 00000+0 27941-3 0 9992 2 64879 97.4559 136.7334 0008364 162.4477 197.7054 15.30151120 80767 GEOSCAN 1 (RS92S1) 1 64880U 25155E 26168.18402167 .00008649 00000+0 29334-3 0 9996 2 64880 97.4555 136.8838 0008305 162.1541 197.9993 15.30746148 80774 239ALFEROV (RS61S) 1 64881U 25155F 26168.15367014 .00011903 00000+0 37609-3 0 9996 2 64881 97.4555 137.4147 0008041 159.1366 201.0206 15.32938934 80809 GEOSCAN 2 (RS92S2) 1 64890U 25155Q 26168.17770691 .00008482 00000+0 28537-3 0 9995 2 64890 97.4554 137.0299 0008116 149.5431 210.6282 15.31017290 80780 GEOSCAN 5 (RS92S5) 1 64891U 25155R 26168.14270183 .00010879 00000+0 34070-3 0 9996 2 64891 97.4548 137.5410 0006755 162.6848 197.4625 15.33255028 80811 GEOSCAN 4 (RS92S4) 1 64892U 25155S 26168.19215536 .00011673 00000+0 36357-3 0 9996 2 64892 97.4551 137.6394 0006821 162.1868 197.9615 15.33411240 80824 GEOSCAN 3 (RS92S3) 1 64893U 25155T 26168.12773234 .00014578 00000+0 42577-3 0 9992 2 64893 97.4540 138.0039 0006780 160.6173 199.5329 15.35393394 80843 INNOSAT 3 (RS92S0) 1 64894U 25155U 26168.18299346 .00029502 00000+0 65102-3 0 9998 2 64894 97.4489 139.6788 0006534 151.1793 208.9817 15.43825466 80963 KNACKSAT-2 1 67683U 98067XZ 26167.64582772 .00039403 00000+0 48230-3 0 9991 2 67683 51.6312 297.1999 0009189 212.7793 147.2631 15.59934910 20196